Location: São Paulo
(23.5507°S, 46.6334°W)
Time: 19:20:20
(UTC-03:00)

Vanguard 2 Rocket - Pass Details

Date: 18 February 2026
Orbit: 553 x 3286 km, 32.9° (Epoch: 11 March)

Event Time Altitude Azimuth Distance (km) Brightness Sun altitude
Exits shadow 03:25:51 33° 220° (SW) 1,982 8.4 -32.6°
Maximum altitude 03:28:58 47° 171° (S) 1,880 8.6 -32.0°
Drops below altitude 10° 03:40:49 10° 100° (E) 4,845 11.4 -29.7°
Sets 03:45:53 0° 95° (E) 6,290 12.2 -28.7°
